Location: Newark
(40.4667°N, 5.6000°W)
Time: 13:29:36
(UTC+00:00)

Courier 1B - All Passes

Search period start: 22 November 2019 00:00
Search period end: 02 December 2019 00:00
Orbit: 963 x 1209 km, 28.3° (Epoch: 21 November)

Date Brightness Start Highest point End Pass type
(mag) Time Alt. Az. Time Alt. Az. Time Alt. Az.
22 Nov - 03:31:32 10° S 03:34:49 13° SSE 03:38:01 10° SE visible
22 Nov - 05:22:22 10° SW 05:27:59 25° S 05:33:23 10° ESE visible
22 Nov - 07:15:31 10° WSW 07:21:16 29° S 07:26:48 10° SE daylight
22 Nov - 09:09:49 10° WSW 09:14:24 20° SSW 09:18:53 10° SSE daylight
23 Nov - 02:40:11 10° SSE 02:41:14 10° SSE 02:42:18 10° SE visible
23 Nov - 04:28:56 10° SW 04:34:24 23° SSE 04:39:38 10° ESE visible
23 Nov - 06:21:45 10° WSW 06:27:41 29° S 06:33:21 10° ESE visible
23 Nov - 08:15:45 10° WSW 08:20:54 23° SSW 08:25:53 10° SE daylight
23 Nov - 10:13:27 10° SSW 10:13:49 10° SSW 10:14:10 10° SSW daylight
24 Nov - 03:35:39 10° SSW 03:40:46 20° SSE 03:45:43 10° ESE visible
24 Nov - 05:28:01 10° SW 05:34:04 29° S 05:39:51 10° ESE visible
24 Nov - 07:21:46 10° WSW 07:27:22 26° S 07:32:43 10° SE daylight
24 Nov - 09:17:12 10° SW 09:20:22 14° SSW 09:23:28 10° S daylight
25 Nov - 02:42:35 10° SSW 02:47:09 17° SSE 02:51:35 10° ESE visible
25 Nov - 04:34:21 10° SW 04:40:26 28° S 04:46:14 10° ESE visible
25 Nov - 06:27:51 10° WSW 06:33:47 29° S 06:39:26 10° SE visible
25 Nov - 08:22:36 10° WSW 08:26:53 18° SSW 08:31:04 10° SSE daylight
26 Nov - 01:49:57 10° S 01:53:32 14° SSE 01:57:03 10° SE night (unlit)
26 Nov - 03:40:46 10° SW 03:46:47 26° SSE 03:52:32 10° ESE visible
26 Nov - 05:33:58 10° WSW 05:40:10 30° S 05:46:03 10° SE visible
26 Nov - 07:28:19 10° WSW 07:33:23 21° SSW 07:38:15 10° SSE daylight
27 Nov - 00:58:30 10° SSE 00:59:55 11° SSE 01:01:19 10° SE night (unlit)
27 Nov - 02:47:19 10° SW 02:53:07 24° SSE 02:58:43 10° ESE visible
27 Nov - 04:40:08 10° WSW 04:46:31 31° S 04:52:34 10° ESE visible
27 Nov - 06:34:11 10° WSW 06:39:50 25° SSW 06:45:13 10° SE visible
27 Nov - 08:30:39 10° SW 08:32:47 12° SSW 08:34:54 10° S daylight
28 Nov - 01:54:02 10° SSW 01:59:27 21° SSE 02:04:42 10° ESE visible
28 Nov - 03:46:22 10° SW 03:52:50 31° S 03:58:59 10° ESE visible
28 Nov - 05:40:08 10° WSW 05:46:13 28° S 05:52:01 10° SE visible
28 Nov - 07:35:26 10° WSW 07:39:19 16° SSW 07:43:05 10° S daylight
29 Nov - 01:01:02 10° SSW 01:05:47 17° SSE 01:10:27 10° ESE night (unlit)
29 Nov - 02:52:42 10° SW 02:59:07 29° S 03:05:18 10° ESE visible
29 Nov - 04:46:11 10° WSW 04:52:34 31° S 04:58:39 10° SE visible
29 Nov - 06:40:53 10° WSW 06:45:47 20° SSW 06:50:31 10° SSE visible
30 Nov - 00:08:31 10° S 00:12:09 14° SSE 00:15:44 10° SE night (unlit)
30 Nov - 01:59:08 10° SW 02:05:25 27° SSE 02:11:30 10° ESE visible
30 Nov - 03:52:17 10° WSW 03:58:53 32° S 04:05:12 10° ESE visible
30 Nov - 05:46:35 10° WSW 05:52:13 24° SSW 05:57:36 10° SSE visible
30 Nov - 23:17:40 10° SSE 23:18:31 10° SSE 23:19:22 10° SE night (unlit)
01 Dec - 01:05:44 10° SSW 01:11:42 24° SSE 01:17:33 10° ESE night (unlit)
01 Dec - 02:58:26 10° WSW 03:05:10 32° S 03:11:37 10° ESE visible
01 Dec - 04:52:27 10° WSW 04:58:35 27° SSW 05:04:27 10° SE visible
01 Dec - 06:48:24 10° SW 06:51:40 13° SSW 06:54:51 10° S visible
